Date String (YYYY-MM-DD hh:mm:ss) UTC,Instrument flags,Ambient pressure (hPa),Sample flow (lpm),Bypass flow (lpm),Sample temperature (°C),Ambient temperature (°C),ASC tube jacket temperature (°C),LED temperature (°C),Box temperature (°C),Sample RH (%),Span deviation,Mass concentration (μg/m³),Mass concentration (μg/m³),Mass concentration (μg/m³)
DateTimeUTC,F1_M11,P_M11,Q1_M11,Q2_M11,T1_M11,T2_M11,T3_M11,T4_M11,T5_M11,U1_M11,ZSPAN_M11,X0_M11,X2_M11,X1_M11
2023-03-10 15:00:00,,0819.6,5.00,0.00,22.1,20.5,00.0,30.9,23.8,16.6,-001.2,0016.16,0012.15,0011.67
2023-03-10 15:01:00,,0819.4,4.99,0.00,22.1,20.6,00.0,30.9,23.8,16.6,-001.2,0015.92,0012.12,0011.66
2023-03-10 15:02:00,,0819.4,4.98,0.00,22.2,21.7,00.0,30.9,24.0,16.5,-001.4,0015.84,0012.09,0011.65
2023-03-10 15:03:00,,0819.6,4.95,0.00,22.3,23.0,00.0,30.9,24.3,16.5,-001.7,0015.84,0012.10,0011.66
2023-03-10 15:04:00,,0819.5,5.02,0.00,22.4,23.1,00.0,30.9,24.4,16.4,-001.9,0015.79,0012.07,0011.63
2023-03-10 15:05:00,,0819.4,5.01,0.00,22.5,22.6,00.0,31.0,24.4,16.3,-001.7,0016.06,0012.06,0011.63
2023-03-10 15:06:00,,0819.7,5.01,0.00,22.5,22.2,00.0,31.0,24.3,16.3,-001.6,0015.92,0012.06,0011.62
2023-03-10 15:07:00,,0819.7,5.00,0.00,22.4,21.8,00.0,31.0,24.2,16.3,-001.7,0015.80,0012.03,0011.62
2023-03-10 15:08:00,,0819.4,4.99,0.00,22.4,21.5,00.0,31.1,24.2,16.3,-001.7,0015.78,0012.05,0011.64
2023-03-10 15:09:00,,0819.4,5.00,0.00,22.4,21.3,00.0,31.1,24.1,16.3,-001.7,0015.76,0012.06,0011.63
2023-03-10 15:10:00,,0819.6,4.99,0.00,22.4,21.1,00.0,31.1,24.1,16.3,-001.6,0015.45,0012.07,0011.65
2023-03-10 15:11:00,,0819.5,5.00,0.00,22.4,20.9,00.0,31.1,24.0,16.4,-002.0,0015.49,0012.08,0011.66
2023-03-10 15:12:00,,0819.3,5.00,0.00,22.3,20.8,00.0,31.1,24.0,16.4,-002.1,0015.82,0012.08,0011.66
2023-03-10 15:13:00,,0819.3,5.01,0.00,22.3,20.7,00.0,31.1,24.0,16.4,-001.9,0016.50,0012.10,0011.67
2023-03-10 15:14:00,,0819.3,5.00,0.00,22.3,20.6,00.0,31.0,23.9,16.5,-001.9,0016.56,0012.12,0011.68
2023-03-10 15:15:00,,0819.2,5.00,0.00,22.3,20.5,00.0,31.0,23.9,16.6,-001.9,0017.17,0012.12,0011.70
2023-03-10 15:16:00,,0819.3,5.00,0.00,22.2,20.5,00.0,31.0,23.9,16.7,-002.0,0017.61,0012.11,0011.70
2023-03-10 15:17:00,,0819.4,5.00,0.00,22.2,20.5,00.0,31.0,23.8,16.7,-002.1,0017.70,0012.07,0011.67
2023-03-10 15:18:00,,0819.3,4.99,0.00,22.2,20.4,00.0,31.0,23.8,16.8,-002.1,0017.66,0012.04,0011.64
2023-03-10 15:19:00,,0819.3,5.01,0.00,22.2,20.9,00.0,31.0,23.9,16.9,-002.0,0017.59,0011.98,0011.58
2023-03-10 15:20:00,,0819.1,4.97,0.00,22.3,22.2,00.0,31.0,24.2,17.1,-001.7,0017.54,0011.93,0011.54
2023-03-10 15:21:00,,0819.1,5.03,0.00,22.4,23.1,00.0,31.0,24.4,17.8,-001.6,0017.62,0011.93,0011.52
2023-03-10 15:22:00,,0819.1,4.98,0.00,22.5,22.8,00.0,31.0,24.4,17.0,-001.2,0017.62,0011.94,0011.52
2023-03-10 15:23:00,,0819.1,5.01,0.00,22.5,22.3,00.0,31.1,24.3,16.8,-001.0,0017.33,0011.96,0011.53
2023-03-10 15:24:00,,0819.1,5.01,0.00,22.5,21.8,00.0,31.1,24.2,16.8,-001.5,0016.68,0011.99,0011.55
2023-03-10 15:25:00,,0818.9,5.02,0.00,22.4,21.4,00.0,31.1,24.1,16.8,-001.4,0016.70,0012.04,0011.61
2023-03-10 15:26:00,,0818.9,4.98,0.00,22.4,21.0,00.0,31.1,24.0,16.8,-001.3,0016.24,0012.11,0011.67
2023-03-10 15:27:00,,0818.9,5.00,0.00,22.3,20.7,00.0,31.1,23.9,16.9,-001.2,0015.59,0012.19,0011.76
2023-03-10 15:28:00,,0818.8,5.01,0.00,22.3,20.5,00.0,31.1,23.8,17.0,-001.2,0015.51,0012.32,0011.88
2023-03-10 15:29:00,,0818.8,5.01,0.00,22.2,20.3,00.0,31.1,23.7,17.1,-001.3,0016.03,0012.47,0012.00
2023-03-10 15:30:00,,0818.8,5.01,0.00,22.2,20.1,00.0,31.0,23.7,17.2,-001.3,0016.34,0012.60,0012.12
2023-03-10 15:31:00,,0818.9,4.98,0.00,22.1,19.9,00.0,31.0,23.6,17.3,-001.5,0016.43,0012.70,0012.22
2023-03-10 15:32:00,,0818.9,5.00,0.00,22.0,19.8,00.0,31.0,23.4,17.4,-001.8,0016.37,0012.75,0012.30
2023-03-10 15:33:00,,0818.8,4.99,0.00,21.9,19.7,00.0,30.9,23.3,17.5,-002.1,0016.90,0012.82,0012.38
2023-03-10 15:34:00,,0818.7,5.01,0.00,21.9,20.4,00.0,30.9,23.5,17.6,-002.3,0017.33,0012.89,0012.44
2023-03-10 15:35:00,,0818.7,4.99,0.00,22.1,21.9,00.0,30.9,23.9,17.5,-002.1,0017.39,0012.89,0012.45
2023-03-10 15:36:00,,0818.8,4.99,0.00,22.2,22.9,00.0,30.9,24.1,17.3,-002.3,0017.31,0012.87,0012.45
2023-03-10 15:37:00,,0818.9,5.01,0.00,22.3,22.5,00.0,30.9,24.1,17.4,-002.3,0017.15,0012.82,0012.42
2023-03-10 15:38:00,,0818.9,5.01,0.00,22.2,21.9,00.0,31.0,24.0,17.4,-002.2,0017.13,0012.79,0012.40
2023-03-10 15:39:00,,0818.8,5.00,0.00,22.2,21.4,00.0,31.0,23.9,17.4,-002.2,0017.14,0012.77,0012.38
2023-03-10 15:40:00,,0818.7,4.99,0.00,22.2,21.0,00.0,31.0,23.8,17.5,-002.1,0016.69,0012.70,0012.34
2023-03-10 15:41:00,,0818.7,5.00,0.00,22.1,20.7,00.0,31.0,23.7,17.5,-002.2,0016.62,0012.66,0012.30
2023-03-10 15:42:00,,0818.8,5.00,0.00,22.1,20.4,00.0,30.9,23.7,17.4,-002.2,0017.14,0012.63,0012.26
2023-03-10 15:43:00,,0818.8,5.00,0.00,22.1,20.3,00.0,30.9,23.6,17.4,-002.0,0017.45,0012.61,0012.23
2023-03-10 15:44:00,,0818.8,5.00,0.00,22.0,20.2,00.0,30.9,23.6,17.5,-002.1,0016.86,0012.53,0012.17
2023-03-10 15:45:00,,0818.7,5.01,0.00,22.0,20.1,00.0,30.9,23.5,17.5,-002.1,0016.45,0012.46,0012.12
2023-03-10 15:46:00,,0818.6,4.99,0.00,22.0,20.0,00.0,30.9,23.5,17.5,-002.3,0016.43,0012.44,0012.08
2023-03-10 15:47:00,,0818.8,5.00,0.00,21.9,19.9,00.0,30.8,23.4,17.6,-002.1,0017.11,0012.40,0012.02
2023-03-10 15:48:00,,0818.7,5.00,0.00,21.9,20.2,00.0,30.8,23.4,17.6,-002.0,0017.41,0012.40,0012.00
2023-03-10 15:49:00,,0818.7,5.02,0.00,22.0,21.5,00.0,30.8,23.7,17.5,-001.9,0017.83,0012.36,0011.96
2023-03-10 15:50:00,,0818.4,5.01,0.00,22.1,22.8,00.0,30.8,24.0,17.5,-001.7,0017.70,0012.30,0011.90
2023-03-10 15:51:00,,0818.5,5.01,0.00,22.2,22.9,00.0,30.9,24.1,17.5,-001.8,0017.68,0012.26,0011.85
2023-03-10 15:52:00,,0818.7,4.99,0.00,22.2,22.3,00.0,30.9,24.0,17.4,-001.9,0017.46,0012.19,0011.79
2023-03-10 15:53:00,,0818.9,5.00,0.00,22.2,21.7,00.0,30.9,23.9,17.4,-001.9,0017.12,0012.17,0011.75
2023-03-10 15:54:00,,0818.9,5.00,0.00,22.2,21.3,00.0,30.9,23.8,17.5,-001.9,0017.00,0012.10,0011.69
2023-03-10 15:55:00,,0818.6,5.01,0.00,22.1,21.0,00.0,30.9,23.8,17.6,-001.9,0017.01,0012.03,0011.60
2023-03-10 15:56:00,,0818.4,4.99,0.00,22.1,20.7,00.0,30.9,23.7,17.6,-001.6,0016.93,0011.95,0011.53
2023-03-10 15:57:00,,0818.6,5.00,0.00,22.1,20.5,00.0,30.9,23.7,17.5,-001.4,0016.72,0011.84,0011.44
2023-03-10 15:58:00,,0818.8,5.00,0.00,22.1,20.4,00.0,30.9,23.6,17.5,-001.3,0015.92,0011.74,0011.36
2023-03-10 15:59:00,,0818.8,4.99,0.00,22.0,20.2,00.0,30.8,23.6,17.6,-001.5,0015.56,0011.63,0011.26
